Location: Bucaral
(10.5128°N, 67.0901°W)
Time: 14:25:48
(UTC+00:00)

Cosmos 2221 Rocket - Pass Details

Date: 18 April 2024
Orbit: 618 x 645 km, 82.5° (Epoch: 24 May)

Event Time Altitude Azimuth Distance (km) Brightness Sun altitude
Rises 23:10:43 0° 360° (N) 2,943 7.2 -8.3°
Reaches altitude 10° 23:12:59 10° 3° (N) 2,033 6.3 -8.9°
Maximum altitude 23:17:28 67° 86° (E) 693 3.6 -10.0°
Drops below altitude 10° 23:21:56 10° 169° (SSE) 2,023 6.0 -11.0°
Sets 23:24:11 0° 171° (S) 2,928 6.8 -11.6°
